Location: Allos
(44.2333°N, 6.6333°E)
Time: 04:42:39
(UTC+00:00)

H-2A R/B - Pass Details

Date: 01 December 2020
Orbit: 499 x 540 km, 97.3° (Epoch: 22 January)

Event Time Altitude Azimuth Distance (km) Brightness Sun altitude
Rises 16:24:20 0° 170° (S) 2,654 6.5 -5.3°
Reaches altitude 10° 16:26:25 10° 172° (S) 1,776 5.7 -5.7°
Maximum altitude 16:30:16 76° 258° (WSW) 558 3.0 -6.3°
Drops below altitude 10° 16:34:10 10° 345° (NNW) 1,808 5.4 -6.9°
Sets 16:36:19 0° 347° (NNW) 2,708 6.2 -7.3°
